Hourly Data Report for October 10, 2013

All times are specified in Local Standard Time (LST). Add 1 hour to adjust for Daylight Saving Time where and when it is observed.

OTTAWA INTL A
ONTARIO

45°19'00.000" N
75°40'00.000" W
114.90 m
6106001
71628
YOW

Download Data

Hourly Data (October 2013)
Hourly Data Report for October 10, 2013
Temp Definition
°C
Dew Point Temp Definition
°C
Rel Hum Definition
%
Wind Dir Definition
10's deg

Wind Spd Definition
km/h
Visibility Definition
km
Stn Press Definition
kPa
Hmdx Definition


Wind Chill Definition


Weather Definition


TIME
00:00 Legend Double Dagger 7.8 4.8 81 8 4 24.1 101.24     LegendNANA
01:00 Legend Double Dagger 6.9 4.6 85 20 4 24.1 101.24     Clear
02:00 Legend Double Dagger 4.5 3.0 90 5 5 24.1 101.22     LegendNANA
03:00 Legend Double Dagger 4.7 3.7 93 17 5 24.1 101.21     LegendNANA
04:00 Legend Double Dagger 4.6 2.8 88 2 3 24.1 101.24     Mostly Cloudy
05:00 Legend Double Dagger 3.3 2.7 96 19 3 24.1 101.24     LegendNANA
06:00 Legend Double Dagger 4.7 3.8 94 1 9 19.3 101.24     LegendNANA
07:00 Legend Double Dagger 4.9 4.6 98 6 5 24.1 101.27     Mainly Clear
08:00 Legend Double Dagger 7.8 6.6 92 14 4 24.1 101.29     LegendNANA
09:00 Legend Double Dagger 10.8 6.6 75 21 5 24.1 101.30     LegendNANA
10:00 Legend Double Dagger 14.3 7.2 62 21 4 24.1 101.23     Mainly Clear
11:00 Legend Double Dagger 16.5 7.8 56 24 5 24.1 101.18     LegendNANA
12:00 Legend Double Dagger 18.1 5.8 44 24 4 24.1 101.13     LegendNANA
13:00 Legend Double Dagger 19.1 6.7 44 23 3 24.1 101.07     Mainly Clear
14:00 Legend Double Dagger 19.8 6.7 42 22 10 24.1 101.02     LegendNANA
15:00 Legend Double Dagger 19.6 5.4 39 16 8 24.1 100.98     LegendNANA
16:00 Legend Double Dagger 19.4 7.0 44 22 4 24.1 100.95     Mainly Clear
17:00 Legend Double Dagger 17.2 7.9 54 15 5 24.1 100.94     LegendNANA
18:00 Legend Double Dagger 13.6 7.4 66 16 6 24.1 100.94     LegendNANA
19:00 Legend Double Dagger 12.6 6.7 67 15 4 24.1 100.92     Mainly Clear
20:00 Legend Double Dagger 11.1 6.1 71 14 2 24.1 100.89     LegendNANA
21:00 Legend Double Dagger 10.3 6.1 75 19 1 24.1 100.91     LegendNANA
22:00 Legend Double Dagger 9.6 6.0 78 4 4 24.1 100.87     Clear
23:00 Legend Double Dagger 6.9 5.1 88 3 4 24.1 100.85     LegendNANA

Notes on Data Quality.

Legend

  • E = Estimated
  • M = Missing
  • NA = Not Available
  • ‡ = Partner data that is not subject to review by the National Climate Archives
Date modified: